Temp
-19 -17 -16 -14 -14 -13 -12 -12 -11 -10 -10 -10 -9 -8 -9 -10 -10 -10 -9 -9 -9 -9 -8 -8 -8 -7 -7 -8 -8 -9 -8 -8 -9 -9 -8 -8 -8 -8 -8 -9 -9 -9 -8 -8
-21 -17 -17 -16 -15 -14 -13 -12 -11 -11 -11 -10 -10 -9 -9 -10 -10 -10 -9 -9 -9 -9 -8 -9 -9 -8 -8 -8 -8 -8 -9 -9 -8 -9 -9 -8 -9 -9 -8 -8 -8 -8 -8 -8
-20 -18 -18 -17 -15 -14 -13 -12 -12 -11 -12 -10 -11 -10 -10 -11 -10 -9 -9 -9 -9 -8 -9 -10 -10 -10 -9 -8 -9 -8 -8 -9 -7 -9 -7 -7 -7 -8 -8 -8 -8 -8 -8 -9
-20 -19 -19 -17 -15 -15 -14 -13 -13 -12 -12 -11 -11 -11 -10 -11 -10 -9 -9 -9 -9 -8 -9 -9 -10 -11 -10 -10 -9 -9 -9 -10 -8 -9 -9 -7 -7 -7 -8 -8 -8 -9 -9 -9
-20 -19 -18 -17 -15 -15 -15 -14 -14 -14 -13 -12 -11 -11 -10 -11 -10 -9 -9 -9 -9 -9 -9 -9 -9 -10 -10 -10 -10 -10 -8 -9 -8 -9 -7 -8 -8 -7 -7 -8 -9 -9 -9 -10
-20 -19 -18 -17 -16 -15 -15 -15 -14 -14 -14 -13 -12 -11 -11 -10 -9 -9 -9 -9 -9 -9 -9 -9 -10 -9 -10 -9 -9 -8 -7 -7 -8 -8 -7 -7 -7 -7 -8 -8 -9 -9 -10 -10
-19 -19 -18 -17 -16 -15 -15 -15 -15 -15 -14 -12 -12 -11 -11 -10 -10 -10 -9 -9 -9 -9 -9 -9 -9 -9 -9 -9 -9 -8 -8 -8 -8 -7 -7 -7 -7 -8 -8 -8 -9 -10 -10 -11
-18 -18 -17 -17 -16 -15 -15 -15 -15 -14 -13 -12 -13 -11 -11 -11 -10 -10 -10 -9 -10 -10 -10 -10 -10 -10 -10 -10 -10 -10 -9 -9 -8 -7 -7 -7 -8 -7 -8 -9 -9 -10 -10 -12
-18 -17 -17 -17 -16 -16 -16 -16 -15 -14 -14 -13 -13 -11 -11 -11 -11 -10 -10 -10 -10 -10 -10 -10 -10 -10 -11 -11 -11 -11 -11 -10 -8 -7 -6 -7 -8 -8 -8 -9 -10 -10 -11 -12
-17 -17 -17 -17 -16 -16 -16 -16 -15 -14 -13 -13 -12 -12 -11 -11 -11 -11 -11 -11 -10 -10 -10 -10 -10 -12 -13 -12 -10 -11 -10 -9 -8 -8 -7 -7 -8 -9 -9 -10 -10 -11 -12 -12
-18 -17 -17 -16 -16 -15 -15 -15 -14 -14 -13 -13 -12 -12 -12 -12 -12 -12 -11 -11 -11 -10 -10 -11 -11 -12 -13 -13 -11 -10 -10 -9 -8 -9 -9 -9 -9 -10 -10 -11 -11 -11 -12 -12
-18 -17 -17 -18 -18 -17 -16 -15 -14 -14 -13 -13 -13 -12 -12 -12 -12 -12 -11 -11 -11 -10 -11 -12 -13 -12 -13 -12 -11 -10 -10 -10 -10 -10 -11 -11 -11 -10 -11 -12 -11 -11 -11 -12
-18 -18 -18 -17 -17 -18 -17 -16 -16 -16 -15 -14 -13 -13 -13 -12 -12 -11 -11 -11 -11 -12 -12 -13 -14 -13 -13 -11 -12 -11 -10 -10 -10 -10 -10 -11 -11 -11 -12 -12 -12 -12 -11 -11
-18 -18 -18 -18 -17 -17 -16 -16 -16 -16 -15 -15 -14 -14 -14 -13 -13 -13 -13 -14 -14 -13 -13 -13 -14 -14 -13 -12 -11 -11 -10 -11 -11 -11 -11 -11 -12 -12 -12 -13 -12 -11 -11 -11
-18 -18 -17 -17 -17 -17 -17 -17 -17 -16 -16 -16 -15 -15 -15 -14 -14 -13 -13 -14 -14 -14 -13 -14 -14 -13 -13 -12 -11 -11 -11 -11 -11 -11 -12 -12 -12 -12 -12 -12 -13 -13 -13 -12
-18 -17 -18 -18 -18 -17 -17 -17 -17 -16 -16 -16 -16 -15 -15 -14 -14 -14 -14 -14 -14 -14 -14 -13 -13 -13 -12 -12 -12 -12 -11 -12 -12 -12 -12 -13 -12 -12 -13 -12 -12 -13 -12 -12
-18 -18 -18 -18 -18 -17 -18 -17 -17 -17 -17 -16 -16 -15 -15 -14 -14 -14 -14 -14 -14 -14 -13 -14 -14 -14 -13 -13 -12 -11 -11 -11 -12 -12 -13 -13 -13 -13 -13 -13 -12 -13 -12 -13
-18 -17 -18 -18 -18 -17 -17 -18 -17 -17 -17 -16 -16 -16 -15 -14 -14 -14 -14 -14 -14 -14 -13 -13 -14 -13 -13 -14 -13 -13 -13 -13 -13 -13 -13 -13 -13 -13 -13 -13 -13 -13 -13 -13
-17 -17 -17 -18 -18 -18 -18 -17 -17 -16 -16 -16 -16 -15 -15 -14 -14 -13 -14 -14 -14 -14 -14 -14 -14 -14 -14 -14 -14 -14 -14 -14 -14 -13 -13 -13 -13 -13 -13 -13 -13 -14 -14 -13
-17 -17 -17 -18 -18 -17 -17 -17 -17 -17 -15 -15 -15 -15 -14 -14 -15 -15 -14 -14 -14 -14 -14 -14 -14 -14 -14 -14 -14 -14 -14 -14 -14 -13 -13 -12 -13 -14 -14 -14 -14 -14 -13 -14
-17 -17 -17 -17 -17 -17 -17 -17 -17 -16 -16 -16 -15 -15 -15 -14 -15 -14 -14 -14 -14 -14 -14 -14 -15 -15 -14 -14 -14 -14 -13 -13 -13 -13 -13 -14 -14 -15 -14 -14 -14 -14 -14 -13
-17 -17 -17 -17 -17 -17 -17 -17 -17 -16 -16 -16 -16 -16 -15 -15 -15 -15 -15 -14 -14 -14 -15 -14 -14 -14 -14 -14 -14 -13 -13 -13 -13 -13 -14 -14 -14 -14 -14 -14 -14 -13 -13 -13
-17 -17 -17 -17 -16 -17 -16 -16 -16 -16 -16 -16 -16 -16 -16 -15 -15 -15 -15 -15 -15 -14 -14 -15 -14 -14 -14 -14 -14 -13 -13 -14 -14 -14 -14 -14 -14 -14 -14 -14 -14 -14 -14 -14
-17 -17 -17 -16 -16 -17 -16 -16 -16 -16 -16 -16 -16 -15 -16 -15 -15 -15 -16 -15 -15 -15 -15 -14 -14 -14 -14 -14 -14 -14 -14 -14 -13 -14 -15 -14 -14 -14 -14 -14 -14 -14 -14 -14
-17 -17 -16 -16 -16 -16 -16 -16 -16 -17 -16 -16 -16 -16 -16 -16 -15 -15 -16 -16 -15 -15 -15 -15 -15 -15 -14 -14 -14 -14 -14 -14 -15 -15 -14 -15 -15 -15 -15 -15 -14 -14 -14 -14
-17 -16 -16 -16 -16 -16 -16 -16 -16 -16 -16 -16 -16 -16 -16 -16 -16 -16 -16 -16 -15 -15 -15 -15 -15 -15 -15 -14 -14 -14 -14 -14 -15 -15 -15 -15 -15 -15 -15 -15 -14 -14 -14 -14
Height
5594 5606 5622 5643 5653 5663 5670 5681 5693 5707 5720 5734 5745 5750 5761 5763 5770 5778 5786 5794 5799 5807 5816 5823 5829 5834 5838 5841 5844 5850 5855 5850 5849 5852 5853 5849 5853 5854 5851 5854 5856 5857 5862 5859
5596 5608 5619 5632 5644 5655 5665 5676 5690 5702 5711 5725 5730 5738 5749 5756 5765 5772 5780 5787 5793 5800 5809 5817 5821 5826 5828 5832 5837 5843 5843 5840 5842 5841 5847 5823 5838 5839 5842 5846 5849 5853 5853 5850
5594 5605 5614 5626 5639 5651 5661 5673 5685 5695 5705 5717 5723 5730 5740 5749 5759 5768 5775 5782 5788 5795 5801 5807 5813 5817 5819 5824 5829 5830 5833 5834 5832 5835 5829 5816 5831 5829 5832 5839 5840 5841 5842 5841
5596 5606 5615 5623 5636 5648 5658 5668 5677 5688 5697 5704 5713 5724 5732 5743 5753 5764 5769 5777 5784 5790 5796 5802 5806 5810 5813 5816 5821 5822 5826 5828 5828 5825 5827 5814 5812 5819 5824 5829 5831 5833 5834 5838
5601 5605 5615 5625 5636 5644 5654 5662 5674 5679 5687 5697 5707 5720 5728 5737 5747 5762 5772 5775 5782 5786 5790 5795 5800 5803 5807 5810 5812 5815 5817 5820 5823 5819 5817 5816 5813 5818 5819 5820 5824 5828 5832 5830
5604 5609 5616 5625 5632 5641 5651 5659 5667 5674 5682 5693 5705 5717 5725 5738 5754 5761 5769 5774 5777 5783 5787 5791 5792 5794 5799 5801 5809 5813 5812 5813 5813 5817 5813 5807 5808 5805 5811 5813 5817 5822 5824 5826
5608 5614 5620 5626 5633 5640 5649 5658 5664 5672 5680 5694 5702 5711 5727 5737 5745 5756 5762 5766 5769 5774 5779 5782 5784 5787 5792 5794 5799 5799 5802 5807 5809 5812 5808 5806 5801 5799 5801 5806 5811 5817 5821 5822
5614 5619 5623 5629 5635 5643 5650 5657 5664 5670 5681 5690 5696 5708 5727 5732 5740 5746 5754 5760 5762 5766 5771 5775 5777 5780 5780 5782 5786 5791 5793 5798 5806 5810 5811 5806 5806 5798 5800 5804 5806 5810 5812 5813
5618 5621 5626 5630 5636 5644 5649 5655 5663 5670 5676 5686 5696 5712 5719 5726 5734 5741 5748 5754 5759 5761 5764 5767 5772 5776 5776 5779 5783 5788 5791 5793 5799 5801 5803 5804 5805 5799 5800 5801 5802 5805 5806 5809
5623 5625 5626 5630 5635 5641 5647 5654 5662 5669 5677 5686 5696 5705 5717 5723 5728 5732 5740 5747 5752 5755 5758 5762 5766 5765 5769 5771 5777 5783 5784 5785 5786 5788 5792 5792 5794 5796 5797 5795 5796 5797 5800 5798
5625 5628 5631 5631 5636 5642 5648 5653 5661 5669 5677 5683 5691 5701 5706 5713 5717 5722 5731 5739 5745 5749 5751 5755 5756 5757 5762 5765 5770 5775 5780 5780 5781 5777 5781 5784 5786 5788 5787 5787 5788 5789 5789 5789
5628 5628 5630 5634 5636 5641 5645 5651 5658 5666 5675 5679 5686 5694 5698 5705 5711 5716 5725 5731 5737 5741 5744 5746 5746 5750 5753 5763 5765 5766 5770 5775 5777 5777 5776 5778 5779 5781 5778 5781 5782 5782 5781 5783
5628 5631 5631 5633 5637 5639 5643 5651 5658 5662 5667 5673 5679 5687 5692 5698 5703 5708 5714 5717 5725 5728 5733 5737 5739 5742 5752 5757 5759 5764 5766 5767 5768 5770 5770 5770 5772 5774 5776 5775 5777 5777 5777 5776
5628 5628 5630 5634 5639 5642 5645 5650 5654 5659 5664 5668 5674 5681 5685 5690 5695 5699 5703 5708 5715 5722 5727 5732 5736 5738 5746 5749 5753 5758 5761 5761 5761 5761 5761 5763 5765 5768 5769 5771 5773 5774 5773 5771
5628 5629 5629 5633 5635 5637 5644 5651 5654 5659 5663 5667 5672 5675 5681 5684 5688 5692 5699 5708 5714 5719 5724 5727 5732 5738 5739 5743 5744 5749 5751 5753 5754 5754 5756 5759 5761 5761 5763 5764 5764 5764 5761 5762
5627 5629 5629 5632 5633 5637 5640 5646 5650 5655 5660 5665 5667 5673 5678 5682 5686 5690 5696 5704 5711 5714 5719 5721 5724 5729 5732 5732 5740 5744 5746 5747 5747 5748 5748 5751 5752 5753 5754 5754 5753 5754 5754 5753
5626 5627 5628 5631 5634 5637 5640 5645 5650 5653 5660 5664 5668 5674 5677 5680 5684 5690 5695 5700 5707 5713 5717 5720 5724 5727 5728 5729 5732 5736 5736 5733 5738 5740 5743 5744 5746 5748 5748 5748 5748 5746 5746 5745
5624 5626 5629 5630 5632 5636 5640 5644 5649 5654 5657 5661 5668 5672 5676 5677 5681 5684 5689 5695 5702 5707 5712 5717 5721 5723 5725 5726 5725 5726 5723 5726 5729 5732 5734 5738 5740 5741 5741 5740 5741 5742 5740 5737
5622 5624 5626 5628 5631 5636 5641 5644 5648 5652 5657 5661 5665 5670 5672 5674 5675 5667 5685 5691 5696 5702 5707 5711 5713 5716 5719 5720 5719 5718 5718 5720 5721 5725 5727 5728 5731 5734 5734 5734 5736 5734 5731 5729
5620 5622 5624 5627 5631 5636 5641 5645 5647 5650 5655 5660 5664 5666 5669 5669 5675 5677 5680 5686 5691 5695 5699 5703 5706 5708 5712 5714 5715 5713 5714 5714 5715 5716 5719 5723 5724 5726 5727 5726 5725 5723 5722 5719
5618 5620 5622 5626 5629 5634 5641 5643 5646 5650 5658 5658 5664 5666 5664 5666 5672 5674 5679 5685 5690 5691 5693 5698 5700 5703 5705 5706 5706 5707 5707 5709 5710 5711 5713 5715 5716 5718 5719 5718 5717 5715 5713 5709
5616 5619 5621 5624 5628 5632 5636 5641 5645 5651 5654 5658 5661 5666 5667 5669 5672 5675 5680 5683 5686 5688 5691 5696 5697 5698 5698 5698 5700 5700 5703 5704 5705 5705 5706 5708 5709 5711 5711 5710 5708 5706 5704 5701
5615 5618 5621 5624 5627 5630 5633 5636 5642 5650 5653 5657 5662 5665 5668 5670 5673 5675 5679 5682 5685 5687 5689 5692 5694 5695 5696 5697 5697 5696 5696 5700 5700 5702 5702 5703 5704 5704 5704 5702 5701 5699 5698 5695
5612 5616 5619 5623 5625 5628 5630 5634 5640 5647 5653 5657 5660 5663 5667 5669 5671 5673 5676 5679 5683 5686 5688 5691 5692 5692 5693 5694 5694 5693 5692 5695 5696 5700 5699 5699 5699 5699 5698 5697 5695 5694 5692 5688
5610 5615 5618 5621 5624 5628 5630 5633 5637 5642 5649 5653 5658 5662 5665 5667 5669 5672 5674 5677 5680 5684 5686 5688 5689 5691 5691 5692 5692 5692 5693 5693 5695 5695 5694 5694 5693 5693 5692 5690 5688 5686 5683 5680
5607 5613 5616 5619 5623 5626 5628 5632 5634 5638 5643 5649 5655 5659 5663 5665 5668 5671 5674 5676 5680 5682 5683 5684 5685 5686 5687 5688 5688 5689 5689 5688 5688 5687 5687 5687 5687 5687 5686 5682 5680 5678 5676 5673
Wind_Speed
43 46 56 55 57 60 65 65 68 63 61 58 58 63 59 62 63 65 64 64 66 62 53 49 50 49 50 47 47 47 52 57 54 58 58 58 59 54 55 51 45 38 42 41
33 37 50 54 56 56 62 62 63 60 56 57 60 63 59 60 63 66 64 64 63 61 61 56 54 54 57 49 48 57 58 58 55 60 56 61 62 63 58 51 42 43 52 32
26 33 46 51 53 53 57 58 58 58 54 57 57 60 60 55 60 63 63 62 61 58 56 55 54 52 57 56 49 50 65 46 57 39 44 36 39 63 50 50 46 53 45 45
31 22 39 45 51 50 52 53 54 54 54 58 58 57 58 50 54 57 59 59 58 57 58 57 58 58 59 62 65 69 67 45 49 50 58 61 37 54 55 54 52 45 45 40
25 34 37 45 47 49 48 49 48 49 52 55 57 58 55 47 48 48 49 51 51 54 56 58 59 59 58 59 59 56 56 55 56 50 52 59 43 39 54 47 43 46 36 29
23 29 34 40 45 48 45 45 45 42 46 53 54 57 53 46 42 43 43 48 49 48 49 49 53 57 55 57 52 45 49 54 57 49 46 57 55 62 55 47 35 30 27 28
17 25 32 36 43 46 44 44 41 37 42 48 51 56 52 47 44 43 43 44 45 42 41 41 44 47 46 48 47 48 51 51 51 44 44 51 37 38 46 29 30 32 25 12
18 22 29 34 38 41 41 41 40 43 44 45 47 53 50 46 48 47 46 47 47 44 40 39 42 36 37 44 43 47 51 48 39 39 41 37 24 24 24 27 23 15 15 20
14 21 27 31 32 32 34 36 38 39 41 41 41 44 44 45 42 44 44 44 45 46 43 42 39 37 37 39 41 36 37 39 43 39 36 39 40 25 33 32 24 20 25 33
7 18 28 29 31 32 34 35 37 38 40 39 39 39 37 37 38 40 40 41 43 44 43 42 40 37 34 38 40 32 25 27 25 32 35 41 42 35 34 26 22 26 33 32
6 14 22 29 29 31 32 35 35 35 34 34 35 35 37 36 37 38 38 41 44 47 46 42 40 40 37 37 35 35 25 20 28 25 21 24 38 28 31 22 26 30 32 35
7 15 19 18 24 30 36 39 38 36 34 35 34 34 36 37 38 41 40 39 40 42 41 38 38 43 46 26 18 26 32 25 25 22 16 16 19 30 28 18 26 32 34 35
4 7 22 22 25 28 32 34 35 35 39 39 40 38 37 38 41 43 44 45 41 41 40 38 38 41 32 21 19 25 26 25 24 27 27 26 24 29 26 23 30 35 36 39
5 3 12 24 22 23 27 28 31 30 37 38 35 37 28 30 35 41 43 42 34 34 33 31 32 34 25 21 21 25 27 29 30 29 29 29 24 28 28 25 31 35 38 39
8 6 6 13 20 32 30 30 26 33 25 26 27 25 26 25 27 27 31 32 30 30 29 32 33 32 31 28 31 26 26 22 22 25 24 23 23 24 24 25 27 28 24 26
7 9 7 12 13 22 23 25 18 16 18 20 22 29 15 14 24 27 33 34 35 31 28 27 21 22 29 24 26 30 29 27 27 29 26 24 28 20 21 23 23 18 24 36
16 12 10 16 14 23 29 25 21 13 15 19 20 17 18 16 19 32 34 34 32 33 27 22 21 23 25 23 25 29 32 28 29 30 23 21 23 29 30 29 25 28 31 31
13 10 12 19 21 23 23 24 23 22 23 22 18 20 17 20 21 33 34 29 26 25 27 27 29 29 27 28 31 33 26 25 23 21 24 22 28 30 28 30 30 28 29 28
12 10 11 19 25 20 22 22 23 27 26 25 18 22 24 28 31 19 36 28 24 22 20 20 20 24 26 27 29 29 29 27 26 26 24 24 30 30 32 34 34 30 30 28
11 7 13 15 22 21 22 17 22 22 24 21 18 21 27 36 38 21 24 23 24 19 22 24 23 28 28 27 26 27 27 26 28 27 28 32 33 34 36 33 31 32 31 30
9 5 16 17 16 20 18 19 18 23 18 21 22 22 10 14 7 2 6 15 15 16 18 19 19 17 20 19 19 21 24 26 27 28 31 33 29 26 29 28 27 28 27 26
10 8 9 11 13 20 20 19 19 17 20 17 20 23 10 15 12 15 10 6 5 6 11 15 10 10 6 6 12 16 22 20 25 27 29 23 22 24 26 24 24 24 26 28
15 13 11 10 17 18 19 23 22 19 15 16 15 13 11 9 6 4 8 6 9 10 9 8 8 6 5 6 7 13 19 8 15 16 21 22 21 23 21 22 23 26 28 29
17 16 14 15 11 14 13 17 21 20 18 15 17 13 13 12 2 8 13 13 12 11 9 10 9 7 7 8 10 7 7 18 22 17 17 17 18 19 20 22 24 27 29 31
22 17 18 14 15 16 11 18 15 19 20 19 17 17 11 12 8 10 12 12 13 12 11 9 8 10 9 8 8 8 9 13 17 19 18 18 19 21 23 24 25 28 30 32
21 19 21 17 13 11 11 14 6 21 23 24 17 12 7 11 12 14 13 13 13 12 13 12 12 13 14 12 13 15 16 17 18 19 20 21 23 25 24 25 27 29 30 33
Wind_Direction
202 206 201 204 207 210 213 213 214 213 215 214 212 213 209 213 214 217 221 225 228 230 235 235 238 240 241 251 246 240 235 234 234 236 238 234 240 241 236 231 232 237 248 244
195 199 200 201 204 208 211 212 213 212 216 211 211 212 211 211 212 217 220 224 231 233 234 236 239 243 248 249 237 251 232 238 233 239 243 236 236 242 245 249 234 243 238 244
184 191 195 198 200 204 208 211 211 212 214 211 208 212 210 207 211 216 221 225 230 236 239 239 240 242 246 249 252 237 253 241 225 245 241 226 236 234 237 239 236 238 247 245
173 178 201 196 196 200 206 208 210 212 212 212 210 210 213 207 211 212 221 227 231 237 240 242 243 247 251 254 257 258 264 273 271 272 263 261 256 234 236 230 236 235 241 249
191 185 196 194 194 199 202 206 209 211 212 212 211 209 211 209 211 217 223 231 232 236 242 244 246 248 251 254 260 263 262 267 271 278 285 283 289 260 244 226 233 247 244 247
186 192 190 191 194 197 200 205 208 210 212 213 212 210 210 208 213 218 223 234 236 237 244 248 252 253 255 256 262 264 263 263 274 281 291 297 291 276 231 219 227 235 244 256
187 186 189 190 193 196 199 205 207 209 212 212 213 213 209 208 209 216 219 225 234 238 245 252 259 266 271 275 271 269 269 270 276 289 288 293 264 229 219 217 220 228 255 274
172 178 185 190 192 195 200 207 209 212 211 210 213 213 210 217 216 218 222 225 235 241 245 251 260 275 274 271 270 274 275 280 286 278 265 279 229 231 233 218 221 247 277 284
190 180 181 184 189 195 198 205 208 209 211 213 213 211 213 216 222 224 223 226 235 246 253 257 263 269 261 255 258 264 277 283 278 278 253 259 265 221 230 238 243 312 293 278
170 193 182 185 189 189 196 202 208 212 213 213 215 215 214 216 222 227 229 230 235 244 253 259 261 261 260 259 256 258 281 284 284 274 274 275 271 260 236 236 284 290 275 282
184 198 201 186 192 197 197 200 205 209 212 213 213 212 213 213 221 224 225 231 237 245 251 256 256 255 249 253 260 257 266 271 277 278 273 265 262 237 244 257 279 279 282 286
177 208 205 210 194 202 199 202 203 208 212 215 217 216 218 221 224 228 232 234 236 238 242 245 247 253 254 263 252 265 267 266 273 258 245 246 233 238 281 284 271 278 284 289
174 177 204 211 213 212 209 209 212 217 218 218 222 221 224 226 229 234 228 223 222 222 226 237 240 246 251 237 223 232 246 241 236 242 254 256 248 268 263 267 268 273 281 283
204 226 180 195 212 217 212 207 212 218 225 224 222 223 219 218 219 227 210 211 208 223 226 234 236 238 225 222 215 223 233 238 245 247 250 261 264 271 270 265 271 276 282 285
210 245 261 195 200 194 194 198 198 196 200 202 209 192 207 218 222 205 209 206 212 224 231 228 229 224 230 225 223 215 220 231 242 248 252 258 269 281 274 276 278 279 281 279
219 226 196 200 211 219 208 200 198 189 194 190 198 203 201 213 208 196 193 200 212 211 211 227 224 227 238 221 213 226 220 237 251 253 259 284 289 286 275 290 285 280 279 286
234 258 209 198 201 214 216 219 218 214 212 208 211 199 210 224 209 199 202 208 220 229 227 233 235 231 243 241 243 227 230 223 238 258 269 283 267 276 274 286 282 284 287 289
224 219 209 199 198 201 202 213 222 220 226 231 227 215 219 222 234 210 201 199 208 219 227 234 241 248 248 249 243 247 249 249 255 260 265 271 274 275 273 287 285 290 283 285
235 215 201 205 202 198 188 210 212 225 231 238 253 242 240 240 254 178 190 190 204 222 242 248 248 241 241 246 253 263 270 271 277 270 265 276 276 274 279 283 281 270 278 282
231 229 191 204 209 199 190 198 209 223 232 242 252 254 249 239 241 249 200 204 222 244 267 250 250 248 241 254 251 264 270 271 272 272 269 278 279 277 278 282 275 276 277 278
238 191 186 194 202 205 203 209 209 215 212 226 230 232 228 208 209 98 180 210 238 240 208 224 243 237 243 252 259 262 261 264 265 264 268 267 271 262 267 271 271 273 274 282
218 216 230 217 200 199 210 212 202 206 218 219 236 253 129 143 172 146 148 177 189 195 198 215 217 236 243 269 266 260 261 255 260 260 261 272 263 253 261 265 274 283 287 293
213 210 225 206 202 194 218 220 218 202 205 204 216 223 203 195 205 222 197 217 224 208 216 210 222 220 253 296 283 295 221 227 252 282 253 262 257 256 267 279 286 293 294 297
218 210 200 205 205 202 229 230 228 211 209 200 209 205 186 205 236 232 218 215 222 209 202 215 224 242 275 282 281 306 223 229 235 260 251 255 263 270 279 288 294 296 297 300
224 218 216 219 221 217 227 214 227 219 213 208 203 211 240 206 203 181 180 198 210 213 221 229 234 247 252 268 279 275 251 246 248 254 264 273 280 284 288 295 299 299 303 307
232 227 226 228 231 228 214 232 228 215 223 222 214 198 209 205 192 189 197 210 217 225 234 243 253 263 268 275 281 277 276 281 284 285 285 286 290 292 294 301 307 308 310 311